Charleston, SC

7:32 PM EDT on March 27, 2017 (GMT -0400)
Charleston Air Force Base-International

Weather History for KCHS - June, 2013

Change the Weather History Date:

Wednesday, June 12, 2013

  Actual Average Record
Temperature  
Mean Temperature 85 °F 78 °F  
Max Temperature 95 °F 88 °F 97 °F (2016)
Min Temperature 75 °F 69 °F 50 °F (1972)
Degree Days  
Heating Degree Days 0 0  
Month to date heating degree days 0 0  
Since 1 June heating degree days 0 0  
Since 1 July heating degree days 1846 1975  
Cooling Degree Days 20 14  
Month to date cooling degree days 179 150  
Year to date cooling degree days 526 512  
Since 1 June cooling degree days 179 150  
Growing Degree Days 35 (Base 50)    
Moisture  
Dew Point 72 °F    
Average Humidity 70    
Maximum Humidity 94    
Minimum Humidity 46    
Precipitation  
Precipitation 0.00 in 0.17 in 2.13 in (2012)
Month to date precipitation 7.96 1.97  
Year to date precipitation 31.40 18.28  
Sea Level Pressure  
Sea Level Pressure 29.97 in    
Wind  
Wind Speed 6 mph (WSW)    
Max Wind Speed 13 mph    
Max Gust Speed 15 mph    
Visibility 10 miles    
Events      
T = Trace of Precipitation, MM = Missing Value Source: NWS Daily Summary

Daily Weather History Graph

Daily Weather History Graph

Search for Another Location

Airport or City:

Trip Planner

Search our weather history database for the weather conditions in past years. The results will help you decide how hot, cold, wet, or windy it might be!

Date:

Astronomy

Jun. 12, 2013 Rise Set
Actual Time 6:11 AM EDT 8:29 PM EDT
Civil Twilight 5:42 AM EDT 8:57 PM EDT
Nautical Twilight 5:07 AM EDT 9:32 PM EDT
Astronomical Twilight 4:29 AM EDT 10:10 PM EDT
Moon 9:40 AM EDT (6/12) 11:14 PM EDT (6/12)
Length of Visible Light 15h 15m
Length of Day
14h 17m
Waxing Crescent, 14% of the Moon is Illuminated
Jun 12
Waxing Crescent
Jun 16
First Quarter
Jun 23
Full
Jun 30
Last Quarter
Jul 8
New

Hourly Weather History & Observations

Time (EDT) Temp. Heat Index Dew Point Humidity Pressure Visibility Wind Dir Wind Speed Gust Speed Precip Events Conditions
12:56 AM 75.9 °F - 73.0 °F 91% 29.99 in 10.0 mi Calm Calm - N/A   Mostly Cloudy
1:56 AM 77.0 °F - 73.0 °F 88% 29.98 in 10.0 mi WSW 3.5 mph - N/A   Scattered Clouds
2:56 AM 77.0 °F - 73.0 °F 88% 29.97 in 10.0 mi WSW 4.6 mph - N/A   Scattered Clouds
3:56 AM 75.9 °F - 72.0 °F 87% 29.96 in 10.0 mi SW 4.6 mph - N/A   Scattered Clouds
4:56 AM 77.0 °F - 71.1 °F 82% 29.96 in 10.0 mi West 5.8 mph - N/A   Partly Cloudy
5:56 AM 75.0 °F - 71.1 °F 87% 29.97 in 10.0 mi West 4.6 mph - N/A   Partly Cloudy
6:56 AM 75.0 °F - 71.1 °F 87% 29.98 in 10.0 mi WSW 3.5 mph - N/A   Partly Cloudy
7:56 AM 78.1 °F - 72.0 °F 81% 30.00 in 10.0 mi West 6.9 mph - N/A   Scattered Clouds
8:56 AM 81.0 °F 85.8 °F 73.0 °F 77% 30.01 in 10.0 mi West 5.8 mph - N/A   Scattered Clouds
9:56 AM 84.9 °F 91.4 °F 73.0 °F 67% 30.00 in 10.0 mi NW 5.8 mph - N/A   Partly Cloudy
10:56 AM 88.0 °F 95.6 °F 73.0 °F 61% 30.00 in 10.0 mi West 6.9 mph - N/A   Partly Cloudy
11:56 AM 90.0 °F 96.4 °F 71.1 °F 54% 30.01 in 10.0 mi West 8.1 mph - N/A   Scattered Clouds
12:56 PM 90.0 °F 97.9 °F 73.0 °F 57% 30.00 in 10.0 mi SW 8.1 mph - N/A   Scattered Clouds
1:56 PM 91.9 °F 98.4 °F 71.1 °F 50% 29.99 in 10.0 mi West 6.9 mph - N/A   Scattered Clouds
2:56 PM 93.0 °F 100.1 °F 71.1 °F 49% 29.97 in 10.0 mi NW 8.1 mph - N/A   Scattered Clouds
3:56 PM 93.9 °F 100.3 °F 70.0 °F 46% 29.95 in 10.0 mi Variable 6.9 mph - N/A   Scattered Clouds
4:56 PM 93.9 °F 100.3 °F 70.0 °F 46% 29.94 in 10.0 mi SW 8.1 mph - N/A   Scattered Clouds
5:56 PM 93.9 °F 100.3 °F 70.0 °F 46% 29.93 in 10.0 mi WNW 8.1 mph - N/A   Partly Cloudy
6:56 PM 93.0 °F 99.0 °F 70.0 °F 47% 29.93 in 10.0 mi WSW 8.1 mph - N/A   Partly Cloudy
7:56 PM 90.0 °F 96.9 °F 72.0 °F 55% 29.93 in 10.0 mi WSW 4.6 mph - N/A   Partly Cloudy
8:56 PM 84.0 °F 91.2 °F 73.9 °F 72% 29.94 in 10.0 mi SW 3.5 mph - N/A   Partly Cloudy
9:56 PM 84.0 °F 92.6 °F 75.9 °F 76% 29.95 in 10.0 mi South 6.9 mph - N/A   Partly Cloudy
10:56 PM 82.0 °F 90.2 °F 77.0 °F 85% 29.95 in 10.0 mi South 3.5 mph - N/A   Partly Cloudy
11:56 PM 81.0 °F 87.9 °F 77.0 °F 88% 29.94 in 10.0 mi South 5.8 mph - N/A   Partly Cloudy